Location: Bucquoy
(50.1391°N, 2.7097°E)
Time: 13:03:54
(UTC+00:00)

Okean 1 Rocket - Pass Details

Date: 06 May 2021
Orbit: 605 x 635 km, 82.5° (Epoch: 22 June)

Event Time Altitude Azimuth Distance (km) Brightness Sun altitude
Rises 01:51:29 0° 348° (NNW) 2,925 7.2 -17.8°
Reaches altitude 10° 01:53:45 10° 346° (NNW) 2,008 6.3 -17.6°
Maximum altitude 01:58:10 73° 263° (W) 653 3.0 -17.2°
Enters shadow 02:00:21 29° 184° (S) 1,136 3.9 -17.0°
